{"data":{"norad_id":44886,"epoch":"2026-05-25T04:26:47.696064Z","epoch_age_seconds":58773,"freshness":"FRESH","line1":"1 44886U 19093H   26145.18527426  .00003191  00000+0  29656-3 0  9999","line2":"2 44886  97.7993 233.4659 0012897 137.5635 222.6585 14.95020638348749","mean_motion":14.95020638,"eccentricity":0.0012897,"inclination_deg":97.7993,"raan_deg":233.4659,"arg_perigee_deg":137.5635,"mean_anomaly_deg":222.6585,"bstar":0.00029656,"rev_number":34874,"period_min":96.319740570698,"perigee_km":573.33180658684,"apogee_km":591.28558020839,"semimajor_km":6960.4456933976,"source":"CELESTRAK","updated_at":"2026-05-25T13:37:56.040314Z"}}